9A5BAA Weather Reports


Display with metric or nautical units.
time (UTC)temp
F
wind
direction
speed
MPH
gust
MPH
rain 1hr
in
rain 24hr
in
rain mn
in
humidity
%
barometer
mb
20260503212027 58 86 3.0 6.0 0.00 0.00 0.00 47 1017.8
20260503211540 58 82 2.0 4.0 0.00 0.00 0.00 46 1017.9
20260503211027 58 71 2.0 4.0 0.00 0.00 0.00 46 1017.9
20260503210527 58 72 2.0 5.0 0.00 0.00 0.00 46 1017.8
20260503210041 58 44 2.0 6.0 0.00 0.00 0.00 46 1017.9
20260503205529 59 44 2.0 7.0 0.00 0.00 0.00 46 1017.9
20260503205027 59 73 2.0 7.0 0.00 0.00 0.00 46 1017.7
20260503204546 59 70 3.0 7.0 0.00 0.00 0.00 47 1017.8
20260503204027 58 49 3.0 6.0 0.00 0.00 0.00 48 1017.8
20260503203527 59 70 3.0 6.0 0.00 0.00 0.00 49 1017.8
20260503203105 58 355 3.0 7.0 0.00 0.00 0.00 50 1017.7
20260503202528 57 45 3.0 7.0 0.00 0.00 0.00 51 1017.8
20260503202028 57 50 3.0 5.0 0.00 0.00 0.00 53 1017.7
20260503201549 57 36 2.0 4.0 0.00 0.00 0.00 54 1017.7
20260503201031 57 26 1.0 2.0 0.00 0.00 0.00 57 1017.7
20260503200528 55 26 1.0 2.0 0.00 0.00 0.00 61 1017.6
20260503200040 53 25 1.0 2.0 0.00 0.00 0.00 65 1017.7
20260503195525 52 286 1.0 3.0 0.00 0.00 0.00 68 1017.6
20260503195025 52 286 0.0 3.0 0.00 0.00 0.00 68 1017.6
20260503194543 52 286 2.0 3.0 0.00 0.00 0.00 68 1017.7
20260503194025 52 286 2.0 3.0 0.00 0.00 0.00 67 1017.7
20260503193525 53 286 0.0 3.0 0.00 0.00 0.00 67 1017.7
20260503193046 53 0 0.0 0.0 0.00 0.00 0.00 67 1017.6
20260503192526 53 0 0.0 0.0 0.00 0.00 0.00 67 1017.6
20260503192026 53 0 0.0 0.0 0.00 0.00 0.00 67 1017.6
20260503191547 53 0 0.0 0.0 0.00 0.00 0.00 67 1017.6
20260503191027 53 0 0.0 0.0 0.00 0.00 0.00 66 1017.6
20260503190526 53 0 0.0 0.0 0.00 0.00 0.00 66 1017.6
20260503190044 54 0 0.0 0.0 0.00 0.00 0.00 64 1017.4
20260503185528 54 0 0.0 0.0 0.00 0.00 0.00 64 1017.4
20260503185029 55 0 0.0 0.0 0.00 0.00 0.00 62 1017.3
20260503184540 55 0 0.0 0.0 0.00 0.00 0.00 61 1017.4
20260503184027 56 0 0.0 0.0 0.00 0.00 0.00 61 1017.3
20260503183530 56 0 0.0 1.0 0.00 0.00 0.00 59 1017.3
20260503183044 56 0 0.0 1.0 0.00 0.00 0.00 60 1017.3
20260503182526 57 0 0.0 1.0 0.00 0.00 0.00 59 1017.3
20260503182026 57 286 0.0 1.0 0.00 0.00 0.00 59 1017.2
20260503181549 57 0 0.0 1.0 0.00 0.00 0.00 59 1017.2
20260503181026 57 0 0.0 1.0 0.00 0.00 0.00 58 1017.2
20260503180525 58 0 0.0 1.0 0.00 0.00 0.00 57 1017.1
20260503180041 59 0 0.0 2.0 0.00 0.00 0.00 56 1017.1
20260503175525 60 0 0.0 2.0 0.00 0.00 0.00 54 1017.0
20260503175025 61 0 0.0 1.0 0.00 0.00 0.00 52 1017.1
20260503174540 61 0 0.0 3.0 0.00 0.00 0.00 52 1017.0
20260503174027 62 0 0.0 3.0 0.00 0.00 0.00 49 1017.0
20260503173525 63 285 0.0 3.0 0.00 0.00 0.00 48 1017.0
20260503173047 64 0 0.0 4.0 0.00 0.00 0.00 48 1017.0
20260503172525 64 282 0.0 4.0 0.00 0.00 0.00 47 1017.1
20260503172025 64 282 2.0 4.0 0.00 0.00 0.00 46 1017.1
20260503171542 65 296 0.0 4.0 0.00 0.00 0.00 47 1016.9
20260503171026 65 298 0.0 3.0 0.00 0.00 0.00 46 1016.9
20260503170527 65 261 0.0 6.0 0.00 0.00 0.00 46 1016.9
20260503150523 67 290 6.0 13.0 0.00 0.00 0.00 37 1016.5
20260503131026 71 183 4.0 9.0 0.00 0.00 0.00 36 1016.8
20260503130525 71 215 3.0 7.0 0.00 0.00 0.00 37 1016.9
20260503110526 70 59 4.0 12.0 0.00 0.00 0.00 32 1018.1
20260503081550 65 83 3.0 7.0 0.00 0.00 0.00 43 1019.1
20260503081027 65 72 1.0 10.0 0.00 0.00 0.00 42 1019.1
20260503080525 64 25 1.0 12.0 0.00 0.00 0.00 45 1019.2
20260503072526 63 309 2.0 7.0 0.00 0.00 0.00 46 1019.2
20260503072026 62 0 1.0 9.0 0.00 0.00 0.00 47 1019.3
20260503071538 62 17 3.0 9.0 0.00 0.00 0.00 46 1019.4
20260503071226 62 320 5.0 9.0 0.00 0.00 0.00 46 1019.2
20260503070525 62 313 2.0 8.0 0.00 0.00 0.00 50 1019.5
20260503060106 56 347 0.0 2.0 0.00 0.00 0.00 59 1019.5
20260503055026 55 49 1.0 5.0 0.00 0.00 0.00 60 1019.5
20260503054554 54 65 2.0 7.0 0.00 0.00 0.00 61 1019.5
20260503054023 54 76 3.0 7.0 0.00 0.00 0.00 61 1019.4
20260503053526 54 40 3.0 7.0 0.00 0.00 0.00 62 1019.4
20260503053043 53 39 4.0 7.0 0.00 0.00 0.00 62 1019.5
20260503052529 53 74 3.0 7.0 0.00 0.00 0.00 63 1019.4
20260503052022 52 60 3.0 7.0 0.00 0.00 0.00 63 1019.6
20260503051539 52 55 4.0 7.0 0.00 0.00 0.00 64 1019.5
20260503051025 51 58 3.0 7.0 0.00 0.00 0.00 64 1019.4
20260503050523 51 46 3.0 7.0 0.00 0.00 0.00 65 1019.3
20260503050039 51 63 4.0 8.0 0.00 0.00 0.00 65 1019.4
20260503045524 50 59 4.0 8.0 0.00 0.00 0.00 65 1019.4
20260503045024 50 53 5.0 9.0 0.00 0.00 0.00 65 1019.4
20260503044539 50 54 5.0 9.0 0.00 0.00 0.00 65 1019.2
20260503044023 50 71 5.0 9.0 0.00 0.00 0.00 64 1019.2
20260503043523 50 69 5.0 8.0 0.00 0.00 0.00 64 1019.1
20260503043037 50 63 4.0 9.0 0.00 0.00 0.00 64 1019.1
20260503042526 50 44 4.0 9.0 0.00 0.00 0.00 63 1019.1
20260503042026 50 34 5.0 9.0 0.00 0.00 0.00 63 1019.1
20260503041539 50 91 5.0 9.0 0.00 0.00 0.00 63 1019.0
20260503041029 50 51 5.0 9.0 0.00 0.00 0.00 63 1019.1
20260503040523 50 58 4.0 8.0 0.00 0.00 0.00 62 1019.2
20260503040042 51 47 5.0 11.0 0.00 0.00 0.00 62 1019.2
20260503035526 51 44 5.0 11.0 0.00 0.00 0.00 62 1019.1
20260503035024 51 41 5.0 9.0 0.00 0.00 0.00 61 1019.1
20260503034539 51 56 5.0 10.0 0.00 0.00 0.00 62 1019.0
20260503034025 51 92 4.0 10.0 0.00 0.00 0.00 62 1019.1
20260503033523 51 31 5.0 10.0 0.00 0.00 0.00 62 1019.1
20260503033038 51 60 4.0 10.0 0.00 0.00 0.00 62 1019.0
20260503032523 51 40 5.0 10.0 0.00 0.00 0.00 62 1019.1
20260503032023 50 86 5.0 10.0 0.00 0.00 0.00 62 1019.1
20260503031543 50 51 5.0 10.0 0.00 0.00 0.00 62 1019.1
20260503031024 51 41 5.0 10.0 0.00 0.00 0.00 62 1019.1
20260503030524 51 45 5.0 9.0 0.00 0.00 0.00 62 1019.0
20260503030047 51 49 5.0 9.0 0.00 0.00 0.00 62 1019.1
20260503025523 51 60 5.0 8.0 0.00 0.00 0.00 61 1019.2
20260503025023 51 32 5.0 8.0 0.00 0.00 0.00 61 1019.1
20260503024541 51 51 5.0 9.0 0.00 0.00 0.00 61 1019.2
20260503024026 51 65 4.0 9.0 0.00 0.00 0.00 62 1019.2
20260503023523 51 39 5.0 9.0 0.00 0.00 0.00 62 1019.3
20260503023039 51 55 5.0 8.0 0.00 0.00 0.00 62 1019.3
20260503022523 51 47 5.0 8.0 0.00 0.00 0.00 62 1019.4
20260503022023 51 58 5.0 9.0 0.00 0.00 0.00 62 1019.4
20260503021538 51 53 5.0 9.0 0.00 0.00 0.00 63 1019.4
20260503021023 51 53 5.0 9.0 0.00 0.00 0.00 63 1019.4
20260503020523 51 29 5.0 11.0 0.00 0.00 0.00 63 1019.4
20260503020230 51 1 5.0 11.0 0.00 0.00 0.00 63 1019.4
20260503015527 51 31 5.0 10.0 0.00 0.00 0.00 62 1019.5
20260503015027 51 74 5.0 9.0 0.00 0.00 0.00 62 1019.4
20260503014544 51 64 5.0 9.0 0.00 0.00 0.00 62 1019.4
20260503014026 51 46 5.0 9.0 0.00 0.00 0.00 63 1019.5
20260503013523 50 60 5.0 11.0 0.00 0.00 0.00 63 1019.6
20260503013041 50 48 6.0 11.0 0.00 0.00 0.00 64 1019.5
20260503012523 50 39 5.0 9.0 0.00 0.00 0.00 64 1019.5
20260503012026 50 34 5.0 9.0 0.00 0.00 0.00 64 1019.5
20260503011539 49 33 5.0 10.0 0.00 0.00 0.00 64 1019.5
20260503011025 49 41 5.0 10.0 0.00 0.00 0.00 64 1019.6
20260503010526 49 53 5.0 10.0 0.00 0.00 0.00 64 1019.6
20260503010039 49 52 5.0 10.0 0.00 0.00 0.00 63 1019.7
20260503005526 49 34 5.0 10.0 0.00 0.00 0.00 63 1019.7
20260503005028 50 46 5.0 10.0 0.00 0.00 0.00 63 1019.8
20260503004537 50 32 5.0 10.0 0.00 0.00 0.00 62 1019.8
20260503004027 50 51 5.0 11.0 0.00 0.00 0.00 61 1019.8
20260503003526 50 35 6.0 11.0 0.00 0.00 0.00 61 1019.8
20260503003043 51 60 5.0 10.0 0.00 0.00 0.00 61 1019.8
20260503002526 51 66 5.0 10.0 0.00 0.00 0.00 61 1019.8
20260503002026 51 48 5.0 10.0 0.00 0.00 0.00 61 1020.0
20260503001541 51 46 5.0 9.0 0.00 0.00 0.00 61 1019.9
20260503001026 51 62 5.0 9.0 0.00 0.00 0.00 61 1020.0
20260503000525 51 40 4.0 10.0 0.00 0.00 0.00 61 1020.0
20260503000040 51 18 4.0 10.0 0.00 0.00 0.00 61 1020.0
20260502235526 51 40 4.0 8.0 0.00 0.00 0.00 60 1020.1
20260502235026 51 58 4.0 9.0 0.00 0.00 0.00 60 1020.1
20260502234549 51 41 4.0 9.0 0.00 0.00 0.00 60 1020.1
20260502234028 51 50 4.0 7.0 0.00 0.00 0.00 60 1020.2
20260502233527 51 57 4.0 9.0 0.00 0.00 0.00 59 1020.2
20260502233037 51 41 4.0 10.0 0.00 0.00 0.00 59 1020.1
20260502232526 52 68 4.0 10.0 0.00 0.00 0.00 58 1020.3
20260502232026 52 58 4.0 9.0 0.00 0.00 0.00 58 1020.3
20260502231536 52 42 4.0 9.0 0.00 0.00 0.00 58 1020.2
20260502231025 52 53 4.0 9.0 0.00 0.00 0.00 57 1020.3
20260502230527 52 59 4.0 7.0 0.00 0.00 0.00 58 1020.4
20260502230045 52 63 4.0 8.0 0.00 0.00 0.00 59 1020.4
20260502225526 52 74 5.0 8.0 0.00 0.00 0.00 58 1020.4
20260502225026 52 51 4.0 8.0 0.00 0.00 0.00 58 1020.5
20260502224540 52 56 4.0 8.0 0.00 0.00 0.00 58 1020.4
20260502224026 52 55 4.0 7.0 0.00 0.00 0.00 58 1020.6
20260502223526 52 72 4.0 9.0 0.00 0.00 0.00 58 1020.6
20260502223040 52 78 3.0 9.0 0.00 0.00 0.00 57 1020.7
20260502222526 52 100 5.0 9.0 0.00 0.00 0.00 56 1020.7
20260502222025 52 79 3.0 6.0 0.00 0.00 0.00 57 1020.7
20260502221541 52 64 3.0 6.0 0.00 0.00 0.00 58 1020.8
20260502221027 52 65 3.0 5.0 0.00 0.00 0.00 58 1020.9
20260502220526 52 72 3.0 6.0 0.00 0.00 0.00 59 1020.8
20260502220045 52 64 3.0 6.0 0.00 0.00 0.00 59 1020.8
20260502215524 51 59 4.0 7.0 0.00 0.00 0.00 59 1020.9
20260502215023 51 56 3.0 7.0 0.00 0.00 0.00 58 1020.8
20260502214545 51 69 3.0 5.0 0.00 0.00 0.00 58 1020.8
20260502214024 51 72 3.0 5.0 0.00 0.00 0.00 56 1020.8
20260502213523 51 75 3.0 5.0 0.00 0.00 0.00 55 1020.9
20260502213038 51 71 3.0 5.0 0.00 0.00 0.00 54 1020.9
20260502212523 51 71 3.0 5.0 0.00 0.00 0.00 54 1020.8